TimeCST,TemperatureF,Dew PointF,Humidity,Sea Level PressureIn,VisibilityMPH,Wind Direction,Wind SpeedMPH,Gust SpeedMPH,PrecipitationIn,Events,Conditions,WindDirDegrees,DateUTC
12:09 AM,33.8,26.6,75,30.14,10.0,SSE,17.3,-,N/A,,Clear,150,2012-11-17 06:09:00
12:28 AM,33.8,28.4,81,30.13,10.0,SSE,16.1,-,N/A,,Clear,160,2012-11-17 06:28:00
12:49 AM,33.8,28.4,81,30.13,10.0,SSE,16.1,-,N/A,,Clear,160,2012-11-17 06:49:00
1:08 AM,33.8,28.4,81,30.13,10.0,SSE,15.0,-,N/A,,Clear,150,2012-11-17 07:08:00
1:28 AM,33.8,28.4,81,30.12,10.0,SSE,16.1,-,N/A,,Clear,150,2012-11-17 07:28:00
1:48 AM,33.8,28.4,81,30.12,10.0,SSE,15.0,-,N/A,,Clear,160,2012-11-17 07:48:00
2:08 AM,33.8,28.4,81,30.11,10.0,SSE,16.1,-,N/A,,Clear,150,2012-11-17 08:08:00
2:28 AM,33.8,28.4,81,30.11,10.0,SSE,13.8,-,N/A,,Clear,150,2012-11-17 08:28:00
2:48 AM,32.0,28.4,87,30.11,10.0,SSE,13.8,-,N/A,,Clear,150,2012-11-17 08:48:00
3:09 AM,33.8,28.4,81,30.10,10.0,SSE,15.0,-,N/A,,Clear,150,2012-11-17 09:09:00
3:28 AM,33.8,30.2,87,30.10,10.0,SSE,13.8,-,N/A,,Clear,150,2012-11-17 09:28:00
3:49 AM,33.8,30.2,87,30.10,10.0,SSE,15.0,-,N/A,,Clear,150,2012-11-17 09:49:00
4:08 AM,33.8,30.2,87,30.09,10.0,SSE,13.8,-,N/A,,Clear,150,2012-11-17 10:08:00
4:28 AM,33.8,30.2,87,30.10,10.0,SSE,12.7,-,N/A,,Clear,150,2012-11-17 10:28:00
4:48 AM,33.8,30.2,87,30.10,10.0,SE,11.5,-,N/A,,Clear,140,2012-11-17 10:48:00
5:08 AM,33.8,30.2,87,30.10,10.0,SSE,11.5,-,N/A,,Clear,150,2012-11-17 11:08:00
5:28 AM,33.8,30.2,87,30.09,10.0,SSE,11.5,-,N/A,,Clear,150,2012-11-17 11:28:00
5:48 AM,33.8,30.2,87,30.09,10.0,SSE,11.5,-,N/A,,Clear,160,2012-11-17 11:48:00
6:08 AM,33.8,30.2,87,30.09,10.0,SSE,12.7,-,N/A,,Clear,150,2012-11-17 12:08:00
6:28 AM,33.8,30.2,87,30.09,7.0,SSE,10.4,-,N/A,,Clear,150,2012-11-17 12:28:00
6:48 AM,33.8,30.2,87,30.09,7.0,SSE,11.5,-,N/A,,Clear,150,2012-11-17 12:48:00
7:08 AM,33.8,30.2,87,30.10,7.0,SSE,9.2,-,N/A,,Clear,150,2012-11-17 13:08:00
7:28 AM,33.8,30.2,87,30.10,7.0,SE,9.2,-,N/A,,Clear,140,2012-11-17 13:28:00
7:48 AM,33.8,30.2,87,30.11,7.0,SE,10.4,-,N/A,,Clear,140,2012-11-17 13:48:00
8:08 AM,35.6,32.0,87,30.11,7.0,SE,10.4,-,N/A,,Clear,140,2012-11-17 14:08:00
8:28 AM,35.6,32.0,87,30.11,7.0,SE,11.5,-,N/A,,Clear,140,2012-11-17 14:28:00
8:48 AM,37.4,33.8,87,30.11,7.0,SE,10.4,-,N/A,,Clear,140,2012-11-17 14:48:00
9:08 AM,37.4,33.8,87,30.11,7.0,SE,11.5,-,N/A,,Clear,140,2012-11-17 15:08:00
9:28 AM,39.2,33.8,81,30.11,7.0,SE,12.7,-,N/A,,Clear,140,2012-11-17 15:28:00
9:48 AM,39.2,33.8,81,30.11,10.0,SSE,10.4,-,N/A,,Clear,150,2012-11-17 15:48:00
10:08 AM,42.8,35.6,76,30.12,10.0,SSE,10.4,-,N/A,,Clear,160,2012-11-17 16:08:00
10:28 AM,44.6,37.4,76,30.12,10.0,SSE,9.2,-,N/A,,Clear,160,2012-11-17 16:28:00
10:48 AM,46.4,35.6,66,30.12,10.0,South,13.8,-,N/A,,Clear,170,2012-11-17 16:48:00
11:08 AM,48.2,35.6,62,30.11,10.0,SSE,15.0,-,N/A,,Clear,160,2012-11-17 17:08:00
11:29 AM,48.2,37.4,66,30.10,10.0,South,13.8,-,N/A,,Clear,170,2012-11-17 17:29:00
11:48 AM,50.0,37.4,62,30.09,10.0,South,12.7,-,N/A,,Clear,170,2012-11-17 17:48:00
12:08 PM,53.6,37.4,54,30.08,10.0,SSE,15.0,-,N/A,,Clear,160,2012-11-17 18:08:00
12:28 PM,53.6,37.4,54,30.07,10.0,South,12.7,-,N/A,,Clear,170,2012-11-17 18:28:00
12:48 PM,55.4,37.4,51,30.06,10.0,South,16.1,19.6,N/A,,Clear,180,2012-11-17 18:48:00
1:08 PM,57.2,37.4,48,30.06,10.0,South,18.4,-,N/A,,Clear,170,2012-11-17 19:08:00
1:28 PM,59.0,39.2,48,30.05,10.0,South,18.4,23.0,N/A,,Clear,170,2012-11-17 19:28:00
1:48 PM,57.2,37.4,48,30.05,10.0,South,21.9,26.5,N/A,,Clear,170,2012-11-17 19:48:00
2:08 PM,57.2,37.4,48,30.04,10.0,South,21.9,25.3,N/A,,Clear,170,2012-11-17 20:08:00
2:28 PM,59.0,39.2,48,30.04,10.0,South,21.9,26.5,N/A,,Clear,170,2012-11-17 20:28:00
2:48 PM,57.2,37.4,48,30.04,10.0,South,21.9,26.5,N/A,,Clear,180,2012-11-17 20:48:00
3:08 PM,57.2,39.2,51,30.03,10.0,South,21.9,-,N/A,,Clear,170,2012-11-17 21:08:00
3:28 PM,55.4,39.2,54,30.03,10.0,SSE,17.3,21.9,N/A,,Clear,160,2012-11-17 21:28:00
3:48 PM,55.4,39.2,54,30.03,10.0,SSE,16.1,-,N/A,,Clear,160,2012-11-17 21:48:00
4:08 PM,53.6,39.2,58,30.04,10.0,SSE,11.5,-,N/A,,Clear,160,2012-11-17 22:08:00
4:28 PM,53.6,39.2,58,30.05,10.0,South,12.7,-,N/A,,Clear,170,2012-11-17 22:28:00
4:48 PM,53.6,39.2,58,30.04,10.0,SSE,12.7,-,N/A,,Scattered Clouds,160,2012-11-17 22:48:00
5:08 PM,53.6,39.2,58,30.04,10.0,SSE,15.0,-,N/A,,Mostly Cloudy,160,2012-11-17 23:08:00
5:28 PM,51.8,39.2,62,30.04,10.0,SSE,10.4,-,N/A,,Mostly Cloudy,150,2012-11-17 23:28:00
5:48 PM,50.0,39.2,66,30.05,10.0,SSE,16.1,-,N/A,,Scattered Clouds,150,2012-11-17 23:48:00
6:08 PM,50.0,37.4,62,30.06,10.0,SSE,13.8,-,N/A,,Scattered Clouds,160,2012-11-18 00:08:00
6:28 PM,48.2,37.4,66,30.06,10.0,SSE,10.4,-,N/A,,Scattered Clouds,150,2012-11-18 00:28:00
6:48 PM,48.2,37.4,66,30.06,10.0,SE,11.5,-,N/A,,Clear,140,2012-11-18 00:48:00
7:08 PM,48.2,35.6,62,30.06,10.0,SE,13.8,-,N/A,,Clear,140,2012-11-18 01:08:00
7:28 PM,46.4,35.6,66,30.06,10.0,SE,12.7,-,N/A,,Clear,140,2012-11-18 01:28:00
7:48 PM,46.4,35.6,66,30.05,10.0,SE,12.7,-,N/A,,Clear,140,2012-11-18 01:48:00
8:08 PM,44.6,35.6,71,30.05,10.0,SE,12.7,-,N/A,,Clear,140,2012-11-18 02:08:00
8:28 PM,44.6,35.6,71,30.05,10.0,SE,16.1,-,N/A,,Clear,140,2012-11-18 02:28:00
8:48 PM,44.6,35.6,71,30.05,10.0,SE,13.8,-,N/A,,Clear,140,2012-11-18 02:48:00
9:08 PM,44.6,35.6,71,30.05,10.0,SE,15.0,-,N/A,,Clear,140,2012-11-18 03:08:00
9:28 PM,42.8,35.6,76,30.04,10.0,SE,16.1,-,N/A,,Clear,140,2012-11-18 03:28:00
9:48 PM,42.8,35.6,76,30.04,10.0,SE,16.1,-,N/A,,Clear,140,2012-11-18 03:48:00
10:08 PM,42.8,35.6,76,30.04,10.0,SE,15.0,-,N/A,,Clear,140,2012-11-18 04:08:00
10:28 PM,42.8,35.6,76,30.04,10.0,SE,13.8,-,N/A,,Clear,140,2012-11-18 04:28:00
10:48 PM,42.8,35.6,76,30.03,10.0,SE,15.0,-,N/A,,Clear,140,2012-11-18 04:48:00
11:08 PM,42.8,33.8,70,30.03,10.0,SE,16.1,-,N/A,,Clear,140,2012-11-18 05:08:00
11:28 PM,42.8,33.8,70,30.03,10.0,SE,15.0,-,N/A,,Clear,140,2012-11-18 05:28:00
11:48 PM,42.8,33.8,70,30.03,10.0,SE,15.0,-,N/A,,Clear,140,2012-11-18 05:48:00